• In Czech Republic
  • List of Countries
  • For 7 days
  • Water Temperature
  • Satellite Maps
  • Weather Map
  • Weather Widgets
  • user-avatar
    Login

    Hourly Weather Nurdamuchash

    Today, 16 July, Monday

    Time Temperature Precipitation Wind Pressure Humidity
    00:00 +19°C° 0.2 mm 2 mps 748 mmHg 94%
    01:00 +19°C° 0 mm 2 mps 747 mmHg 95%
    02:00 +19°C° 0 mm 2 mps 747 mmHg 95%
    03:00 +19°C° 0 mm 2 mps 748 mmHg 96%
    04:00 +20°C° 0 mm 2 mps 748 mmHg 94%
    05:00 +21°C° 0 mm 2 mps 748 mmHg 93%
    06:00 +21°C° 0 mm 2 mps 748 mmHg 91%
    07:00 +24°C° 0.4 mm 2 mps 748 mmHg 86%
    08:00 +25°C° 0.4 mm 2 mps 748 mmHg 81%
    09:00 +26°C° 0 mm 2 mps 748 mmHg 77%
    10:00 +27°C° 0.4 mm 2 mps 748 mmHg 72%
    11:00 +28°C° 0.4 mm 2 mps 748 mmHg 67%
    12:00 +29°C° 0.4 mm 2 mps 747 mmHg 62%
    13:00 +30°C° 0.6 mm 2 mps 747 mmHg 60%
    14:00 +30°C° 0.6 mm 3 mps 747 mmHg 62%
    15:00 +29°C° 0 mm 3 mps 747 mmHg 62%
    16:00 +29°C° 0.3 mm 2 mps 747 mmHg 67%
    17:00 +28°C° 0.3 mm 2 mps 747 mmHg 71%
    18:00 +28°C° 0.3 mm 2 mps 747 mmHg 76%
    19:00 +26°C° 0 mm 2 mps 747 mmHg 81%
    20:00 +25°C° 0 mm 2 mps 747 mmHg 87%
    21:00 +23°C° 0 mm 2 mps 747 mmHg 93%
    22:00 +21°C° 0 mm 2 mps 747 mmHg 94%
    23:00 +21°C° 0 mm 2 mps 747 mmHg 95%

    Tomorrow, 17 July, Tuesday

    Time Temperature Precipitation Wind Pressure Humidity
    00:00 +20°C° 0 mm 2 mps 747 mmHg 96%
    01:00 +20°C° 0 mm 2 mps 747 mmHg 96%
    02:00 +20°C° 0 mm 2 mps 747 mmHg 97%
    03:00 +19°C° 0 mm 2 mps 747 mmHg 97%
    04:00 +20°C° 0 mm 3 mps 747 mmHg 94%
    05:00 +21°C° 0 mm 3 mps 747 mmHg 91%
    06:00 +22°C° 0 mm 3 mps 747 mmHg 88%
    07:00 +24°C° 0.2 mm 3 mps 747 mmHg 82%
    08:00 +26°C° 0.2 mm 4 mps 746 mmHg 76%
    09:00 +27°C° 0.2 mm 4 mps 746 mmHg 70%
    10:00 +28°C° 0.1 mm 4 mps 746 mmHg 66%
    11:00 +29°C° 0.1 mm 5 mps 746 mmHg 62%
    12:00 +30°C° 0.1 mm 5 mps 746 mmHg 57%
    13:00 +29°C° 0.3 mm 5 mps 746 mmHg 60%
    14:00 +29°C° 0.3 mm 5 mps 745 mmHg 63%
    15:00 +28°C° 0.3 mm 5 mps 745 mmHg 66%
    16:00 +27°C° 0.3 mm 4 mps 745 mmHg 72%
    17:00 +26°C° 0.3 mm 4 mps 745 mmHg 78%
    18:00 +24°C° 0.3 mm 3 mps 745 mmHg 84%
    19:00 +24°C° 0.1 mm 3 mps 745 mmHg 85%
    20:00 +22°C° 0.1 mm 4 mps 744 mmHg 87%
    21:00 +21°C° 0.1 mm 4 mps 744 mmHg 88%
    22:00 +21°C° 0.3 mm 4 mps 744 mmHg 90%
    23:00 +20°C° 0.3 mm 4 mps 744 mmHg 91%

    Day after tomorrow, 18 July, Wednesday

    Time Temperature Precipitation Wind Pressure Humidity
    00:00 +20°C° 0.3 mm 5 mps 743 mmHg 92%
    01:00 +20°C° 0.5 mm 4 mps 743 mmHg 93%
    02:00 +20°C° 0.5 mm 4 mps 743 mmHg 95%
    03:00 +20°C° 0.5 mm 4 mps 743 mmHg 96%
    04:00 +20°C° 0.1 mm 4 mps 743 mmHg 96%
    05:00 +20°C° 0.1 mm 4 mps 743 mmHg 96%
    06:00 +20°C° 0.1 mm 3 mps 743 mmHg 96%
    07:00 +21°C° 0.1 mm 3 mps 743 mmHg 93%
    08:00 +22°C° 0.1 mm 3 mps 744 mmHg 91%
    09:00 +22°C° 0.1 mm 3 mps 744 mmHg 89%
    10:00 +25°C° 0.4 mm 3 mps 744 mmHg 83%
    11:00 +26°C° 0.4 mm 3 mps 744 mmHg 78%
    12:00 +27°C° 0.4 mm 3 mps 744 mmHg 73%
    13:00 +27°C° 0.4 mm 3 mps 744 mmHg 72%
    14:00 +28°C° 0.4 mm 4 mps 744 mmHg 71%
    15:00 +28°C° 0.4 mm 4 mps 744 mmHg 70%
    16:00 +27°C° 0.9 mm 4 mps 744 mmHg 75%
    17:00 +26°C° 0.9 mm 4 mps 744 mmHg 80%
    18:00 +25°C° 0.9 mm 3 mps 745 mmHg 85%
    19:00 +24°C° 0.7 mm 3 mps 745 mmHg 88%
    20:00 +22°C° 0.7 mm 3 mps 745 mmHg 91%
    21:00 +21°C° 0.7 mm 3 mps 745 mmHg 94%
    22:00 +21°C° 0.3 mm 2 mps 745 mmHg 94%
    23:00 +20°C° 0.3 mm 2 mps 745 mmHg 95%

    19 July, Thursday

    Time Temperature Precipitation Wind Pressure Humidity
    00:00 +20°C° 0.3 mm 2 mps 745 mmHg 95%
    01:00 +20°C° 0 mm 2 mps 745 mmHg 95%
    02:00 +19°C° 0 mm 2 mps 745 mmHg 95%
    03:00 +19°C° 0 mm 2 mps 746 mmHg 95%
    04:00 +20°C° 0 mm 2 mps 746 mmHg 94%
    05:00 +20°C° 0 mm 2 mps 746 mmHg 92%
    06:00 +21°C° 0 mm 2 mps 746 mmHg 91%
    07:00 +23°C° 0.4 mm 2 mps 746 mmHg 86%
    08:00 +24°C° 0.4 mm 2 mps 746 mmHg 82%
    09:00 +26°C° 0.4 mm 2 mps 746 mmHg 77%
    10:00 +27°C° 0.6 mm 2 mps 747 mmHg 72%
    11:00 +27°C° 0.6 mm 2 mps 747 mmHg 67%
    12:00 +28°C° 0.6 mm 2 mps 747 mmHg 63%
    13:00 +28°C° 0.7 mm 2 mps 747 mmHg 63%
    14:00 +28°C° 0.7 mm 2 mps 747 mmHg 64%
    15:00 +29°C° 0.7 mm 3 mps 747 mmHg 65%
    16:00 +28°C° 1.2 mm 2 mps 747 mmHg 71%
    17:00 +27°C° 1.2 mm 2 mps 747 mmHg 77%
    18:00 +26°C° 1.2 mm 2 mps 748 mmHg 82%
    19:00 +25°C° 0.3 mm 2 mps 748 mmHg 84%
    20:00 +23°C° 0.3 mm 2 mps 748 mmHg 87%
    21:00 +21°C° 0.3 mm 2 mps 748 mmHg 89%
    22:00 +21°C° 0 mm 2 mps 748 mmHg 90%
    23:00 +20°C° 0 mm 2 mps 748 mmHg 91%

    20 July, Friday

    Time Temperature Precipitation Wind Pressure Humidity
    00:00 +20°C° 0 mm 2 mps 748 mmHg 92%
    01:00 +20°C° 0.3 mm 2 mps 748 mmHg 93%
    02:00 +19°C° 0.3 mm 2 mps 748 mmHg 94%
    03:00 +19°C° 0.3 mm 2 mps 748 mmHg 94%
    04:00 +20°C° 0.4 mm 2 mps 748 mmHg 93%
    05:00 +20°C° 0.4 mm 2 mps 748 mmHg 93%
    06:00 +21°C° 0.4 mm 2 mps 748 mmHg 92%
    07:00 +23°C° 0.2 mm 2 mps 748 mmHg 89%
    08:00 +24°C° 0.2 mm 2 mps 748 mmHg 86%
    09:00 +25°C° 0.2 mm 2 mps 748 mmHg 83%
    10:00 +26°C° 1.2 mm 2 mps 748 mmHg 80%
    11:00 +27°C° 1.2 mm 3 mps 748 mmHg 77%
    12:00 +27°C° 1.2 mm 3 mps 748 mmHg 74%
    13:00 +27°C° 0.3 mm 3 mps 748 mmHg 74%
    14:00 +27°C° 0.3 mm 3 mps 748 mmHg 74%
    15:00 +27°C° 0.3 mm 3 mps 748 mmHg 74%
    16:00 +27°C° 0.3 mm 3 mps 748 mmHg 76%
    17:00 +27°C° 0.3 mm 3 mps 748 mmHg 79%
    18:00 +26°C° 0.3 mm 3 mps 748 mmHg 81%
    19:00 +25°C° 0.2 mm 3 mps 748 mmHg 85%
    20:00 +24°C° 0.2 mm 3 mps 748 mmHg 89%
    21:00 +21°C° 0.2 mm 3 mps 748 mmHg 93%
    22:00 +21°C° 0.2 mm 3 mps 748 mmHg 94%
    23:00 +21°C° 0.2 mm 2 mps 748 mmHg 95%

    21 July, Saturday

    Time Temperature Precipitation Wind Pressure Humidity
    00:00 +20°C° 0.2 mm 2 mps 748 mmHg 96%
    01:00 +20°C° 0.2 mm 2 mps 748 mmHg 96%
    02:00 +20°C° 0.2 mm 3 mps 748 mmHg 96%
    03:00 +20°C° 0.2 mm 3 mps 748 mmHg 96%
    04:00 +20°C° 0 mm 3 mps 748 mmHg 96%
    05:00 +21°C° 0 mm 3 mps 748 mmHg 95%
    06:00 +21°C° 0 mm 3 mps 748 mmHg 94%
    07:00 +22°C° 0.1 mm 3 mps 749 mmHg 92%
    08:00 +22°C° 0.1 mm 4 mps 749 mmHg 90%
    09:00 +23°C° 0.1 mm 4 mps 749 mmHg 88%
    10:00 +25°C° 0.4 mm 4 mps 749 mmHg 84%
    11:00 +26°C° 0.4 mm 4 mps 749 mmHg 79%
    12:00 +27°C° 0.4 mm 5 mps 749 mmHg 75%
    13:00 +27°C° 0.2 mm 5 mps 749 mmHg 73%
    14:00 +28°C° 0.2 mm 5 mps 749 mmHg 70%
    15:00 +28°C° 0.2 mm 6 mps 749 mmHg 68%
    16:00 +27°C° 0.1 mm 5 mps 749 mmHg 71%
    17:00 +26°C° 0.1 mm 5 mps 749 mmHg 75%
    18:00 +25°C° 0.1 mm 4 mps 750 mmHg 78%
    19:00 +25°C° 0.1 mm 4 mps 750 mmHg 82%
    20:00 +23°C° 0.1 mm 4 mps 750 mmHg 85%
    21:00 +22°C° 0.1 mm 4 mps 750 mmHg 88%
    22:00 +21°C° 0 mm 4 mps 750 mmHg 89%
    23:00 +21°C° 0 mm 4 mps 750 mmHg 90%
    Show more